Date String (YYYY-MM-DD hh:mm:ss) UTC,Instrument flags,absolute air pressure of the measurement (hPa),sample flow rate (lpm),inlet stack bypass flow (lpm),air temperature of the measurement (°C),ambient temperature measured by the external sensor (°C),aerosol sample conditioner tube jacket temperature (°C),OPC LED temperature (°C),internal box temperature (°C),relative humidity of the measurement (%),span deviation,mass concentration of particles derived from Lorenz-Mie calculation of OPC scattering (μg/m³),mass concentration of particles derived from Lorenz-Mie calculation of OPC scattering (μg/m³),mass concentration of particles derived from Lorenz-Mie calculation of OPC scattering (μg/m³)
DateTimeUTC,F1_M11,P_M11,Q1_M11,Q2_M11,T1_M11,T2_M11,T3_M11,T4_M11,T5_M11,U1_M11,ZSPAN_M11,X0_M11,X2_M11,X1_M11
2024-02-13 21:00:00,SystemResetWarning,0824.7,4.99,000.00,022.9,022.5,000.0,031.1,024.8,09.7,0000.0,0008.84,0003.18,0002.53
2024-02-13 21:01:00,SystemResetWarning,0824.7,5.00,000.00,022.9,022.5,000.0,031.1,024.8,09.8,0000.0,0009.10,0003.16,0002.51
2024-02-13 21:02:00,SystemResetWarning,0824.7,5.00,000.00,023.0,022.6,000.0,031.1,024.8,09.8,0000.0,0009.14,0003.18,0002.53
2024-02-13 21:03:00,SystemResetWarning,0824.7,5.00,000.00,023.0,022.6,000.0,031.1,024.9,10.1,0000.0,0008.88,0003.13,0002.50
2024-02-13 21:04:00,SystemResetWarning,0824.7,5.00,000.00,023.0,022.6,000.0,031.2,024.9,12.3,0000.0,0008.85,0003.11,0002.47
2024-02-13 21:05:00,SystemResetWarning,0824.7,5.00,000.00,023.0,022.6,000.0,031.2,024.9,13.0,0000.0,0008.47,0003.06,0002.43
2024-02-13 21:06:00,SystemResetWarning,0824.7,5.00,000.00,023.0,022.6,000.0,031.2,024.9,13.0,0000.0,0007.71,0003.02,0002.40
2024-02-13 21:07:00,SystemResetWarning,0824.7,5.00,000.00,023.1,022.6,000.0,031.2,024.9,12.9,0000.0,0006.84,0002.95,0002.37
2024-02-13 21:08:00,SystemResetWarning,0824.7,5.00,000.00,023.1,022.7,000.0,031.2,024.9,12.4,0000.0,0007.03,0002.98,0002.35
2024-02-13 21:09:00,SystemResetWarning,0824.7,5.00,000.00,023.1,022.7,000.0,031.3,024.9,12.1,0000.0,0007.26,0003.00,0002.32
2024-02-13 21:10:00,SystemResetWarning,0824.7,4.99,000.00,023.1,022.7,000.0,031.3,024.9,11.9,0000.0,0007.84,0003.06,0002.39
2024-02-13 21:11:00,SystemResetWarning,0824.7,5.00,000.00,023.1,022.7,000.0,031.3,024.9,11.9,0000.0,0009.89,0003.25,0002.63
2024-02-13 21:12:00,SystemResetWarning,0824.7,5.00,000.00,023.1,022.7,000.0,031.3,025.0,11.8,0000.0,0010.66,0003.43,0002.89
2024-02-13 21:13:00,SystemResetWarning,0824.7,5.01,000.00,023.1,022.7,000.0,031.3,025.0,11.6,0000.0,0011.27,0003.60,0003.10
2024-02-13 21:14:00,SystemResetWarning,0824.7,5.00,000.00,023.1,022.7,000.0,031.3,025.0,11.7,0000.0,0011.97,0003.78,0003.24
2024-02-13 21:15:00,SystemResetWarning,0824.7,5.00,000.00,023.2,022.7,000.0,031.3,025.0,11.9,0000.0,0012.76,0003.92,0003.36
2024-02-13 21:16:00,SystemResetWarning,0824.7,5.00,000.00,023.2,022.7,000.0,031.4,025.0,11.7,0000.0,0012.89,0004.09,0003.48
2024-02-13 21:17:00,SystemResetWarning,0824.7,5.00,000.00,023.2,022.7,000.0,031.4,025.0,11.7,0000.0,0012.97,0004.21,0003.57
2024-02-13 21:18:00,SystemResetWarning,0824.7,5.01,000.00,023.2,022.7,000.0,031.4,025.0,11.4,0000.0,0013.18,0004.35,0003.67
2024-02-13 21:19:00,SystemResetWarning,0824.7,5.00,000.00,023.2,022.7,000.0,031.4,025.0,11.5,0000.0,0013.35,0004.48,0003.77
2024-02-13 21:20:00,SystemResetWarning,0824.7,5.00,000.00,023.2,022.8,000.0,031.4,025.0,11.5,0000.0,0013.55,0004.61,0003.88
2024-02-13 21:21:00,SystemResetWarning,0824.7,5.00,000.00,023.2,022.8,000.0,031.5,025.1,11.6,0000.0,0013.77,0004.72,0003.95
2024-02-13 21:22:00,SystemResetWarning,0824.7,4.99,000.00,023.3,022.8,000.0,031.5,025.1,12.1,0000.0,0012.64,0004.68,0003.94
2024-02-13 21:23:00,SystemResetWarning,0824.7,5.00,000.00,023.3,022.8,000.0,031.5,025.1,12.3,0000.0,0011.19,0004.62,0003.91
2024-02-13 21:24:00,SystemResetWarning,0824.7,5.01,000.00,023.3,022.8,000.0,031.5,025.1,11.6,0000.0,0010.32,0004.56,0003.86
2024-02-13 21:25:00,SystemResetWarning,0824.7,5.01,000.00,023.3,022.8,000.0,031.5,025.1,11.3,0000.0,0009.86,0004.50,0003.80
2024-02-13 21:26:00,SystemResetWarning,0824.8,5.00,000.00,023.3,022.8,000.0,031.5,025.1,11.8,0000.0,0009.26,0004.47,0003.77
2024-02-13 21:27:00,SystemResetWarning,0824.7,4.99,000.00,023.3,022.8,000.0,031.6,025.1,12.3,0000.0,0009.47,0004.41,0003.75
2024-02-13 21:28:00,SystemResetWarning,0824.7,4.99,000.00,023.3,022.8,000.0,031.6,025.1,12.0,0000.0,0010.14,0004.39,0003.73
2024-02-13 21:29:00,SystemResetWarning,0824.8,5.00,000.00,023.3,022.8,000.0,031.6,025.1,12.1,0000.0,0010.22,0004.39,0003.74
2024-02-13 21:30:00,SystemResetWarning,0824.7,5.00,000.00,023.3,022.8,000.0,031.6,025.1,12.4,0000.0,0010.18,0004.39,0003.76
2024-02-13 21:31:00,SystemResetWarning,0824.7,5.01,000.00,023.3,022.9,000.0,031.6,025.1,12.4,0000.0,0009.95,0004.32,0003.73
2024-02-13 21:32:00,SystemResetWarning,0824.7,5.00,000.00,023.4,022.9,000.0,031.6,025.1,12.4,0000.0,0009.42,0004.28,0003.72
2024-02-13 21:33:00,SystemResetWarning,0824.7,5.00,000.00,023.4,022.8,000.0,031.6,025.2,12.3,0000.0,0009.14,0004.28,0003.72
2024-02-13 21:34:00,SystemResetWarning,0824.7,5.00,000.00,023.4,022.8,000.0,031.6,025.2,12.6,0000.0,0010.06,0004.28,0003.73
2024-02-13 21:35:00,SystemResetWarning,0824.7,4.99,000.00,023.4,022.8,000.0,031.7,025.2,12.7,0000.0,0010.65,0004.24,0003.73
2024-02-13 21:36:00,SystemResetWarning,0824.7,4.99,000.00,023.4,022.9,000.0,031.7,025.2,12.7,0000.0,0010.76,0004.26,0003.76
2024-02-13 21:37:00,SystemResetWarning,0824.7,5.01,000.00,023.4,022.9,000.0,031.7,025.2,13.0,0000.0,0010.81,0004.28,0003.79
2024-02-13 21:38:00,SystemResetWarning,0824.8,5.01,000.00,023.4,022.9,000.0,031.7,025.2,13.7,0000.0,0010.76,0004.30,0003.82
2024-02-13 21:39:00,SystemResetWarning,0824.7,5.00,000.00,023.4,022.9,000.0,031.7,025.2,14.0,0000.0,0009.82,0004.27,0003.83
2024-02-13 21:40:00,SystemResetWarning,0824.8,4.99,000.00,023.4,022.9,000.0,031.7,025.2,13.6,0000.0,0009.76,0004.28,0003.84
2024-02-13 21:41:00,SystemResetWarning,0824.7,5.00,000.00,023.4,022.9,000.0,031.7,025.2,13.5,0000.0,0009.94,0004.30,0003.85
2024-02-13 21:42:00,SystemResetWarning,0824.8,5.00,000.00,023.5,022.9,000.0,031.7,025.3,13.8,0000.0,0010.08,0004.32,0003.88
2024-02-13 21:43:00,SystemResetWarning,0824.7,5.01,000.00,023.5,022.9,000.0,031.7,025.3,13.6,0000.0,0010.56,0004.40,0003.94
2024-02-13 21:44:00,SystemResetWarning,0824.8,5.01,000.00,023.5,023.0,000.0,031.7,025.3,12.7,0000.0,0010.87,0004.42,0003.98
2024-02-13 21:45:00,SystemResetWarning,0824.7,5.01,000.00,023.5,023.0,000.0,031.8,025.3,14.0,0000.0,0011.93,0004.44,0004.00
2024-02-13 21:46:00,SystemResetWarning,0824.8,4.99,000.00,023.5,023.0,000.0,031.8,025.3,14.0,0000.0,0013.07,0004.52,0004.05
2024-02-13 21:47:00,SystemResetWarning,0824.8,5.00,000.00,023.5,023.0,000.0,031.8,025.4,14.5,0000.0,0013.46,0004.60,0004.11
2024-02-13 21:48:00,SystemResetWarning,0824.9,5.00,000.00,023.5,023.0,000.0,031.8,025.4,14.6,0000.0,0013.54,0004.67,0004.17
2024-02-13 21:49:00,SystemResetWarning,0824.9,5.00,000.00,023.5,023.0,000.0,031.8,025.4,14.3,0000.0,0013.43,0004.71,0004.21
2024-02-13 21:50:00,SystemResetWarning,0824.9,5.00,000.00,023.5,023.1,000.0,031.8,025.4,14.4,0000.0,0013.46,0004.76,0004.24
2024-02-13 21:51:00,SystemResetWarning,0824.9,5.00,000.00,023.6,023.1,000.0,031.8,025.4,14.6,0000.0,0014.35,0004.80,0004.24
2024-02-13 21:52:00,SystemResetWarning,0824.9,5.00,000.00,023.6,023.1,000.0,031.9,025.4,14.8,0000.0,0015.59,0004.81,0004.27
2024-02-13 21:53:00,SystemResetWarning,0824.9,4.99,000.00,023.6,023.1,000.0,031.9,025.5,14.7,0000.0,0016.94,0004.87,0004.31
2024-02-13 21:54:00,SystemResetWarning,0824.9,5.00,000.00,023.6,023.1,000.0,031.9,025.5,14.6,0000.0,0016.68,0004.93,0004.36
2024-02-13 21:55:00,SystemResetWarning,0824.9,5.00,000.00,023.6,023.1,000.0,031.9,025.5,14.7,0000.0,0016.62,0005.03,0004.42
2024-02-13 21:56:00,SystemResetWarning,0824.9,5.00,000.00,023.7,023.1,000.0,031.9,025.5,14.3,0000.0,0015.59,0005.12,0004.47
2024-02-13 21:57:00,SystemResetWarning,0824.9,5.00,000.00,023.7,023.1,000.0,031.9,025.5,14.2,0000.0,0014.02,0005.15,0004.49
2024-02-13 21:58:00,SystemResetWarning,0824.9,5.00,000.00,023.7,023.1,000.0,032.0,025.5,14.4,0000.0,0013.55,0005.20,0004.52
2024-02-13 21:59:00,SystemResetWarning,0824.9,5.00,000.00,023.7,023.1,000.0,032.0,025.5,13.9,0000.0,0013.91,0005.26,0004.57
